パンスターズ彗星

P/2022 R1 ( PanSTARRS )

English version
Home page
Updated on November 13, 2022

---------------------------------------------------------------------

・ プロフィール

発見日 2022年9月1日
発見光度 20.8等
発見者 Pan-STARRS 2 telescope (Haleakala)

・ 軌道要素

Epoch 2022 Aug. 9.0 TT = JDT 2459800.5
T 2023 Oct. 13.31588 TT                                 Rudenko
q   3.5664304            (2000.0)            P               Q
n   0.05143744     Peri.  222.80045     +0.77702052     -0.62941655
a   7.1606071      Node   176.17653     +0.60675864     +0.74527325
e   0.5019374      Incl.    7.40793     +0.16758002     +0.22000591
P  19.2
>From 37 observations 2022 July 20-Nov. 8, mean residual 0".5.

・ 光度変化

        m1 = 11.5 + 5 logΔ + 10.0 log r

---------------------------------------------------------------------

軌道要素はM.P.E.C. 2022-V125に掲載されたものです。
光度グラフはComet for Windowsで作成したものです。

---------------------------------------------------------------------

Copyright(C) Seiichi Yoshida (comet@aerith.net). All rights reserved.